Time,TemperatureF,DewpointF,PressureIn,WindDirection,WindDirectionDegrees,WindSpeedMPH,WindSpeedGustMPH,Humidity,HourlyPrecipIn,Conditions,Clouds,dailyrainin,SoftwareType,DateUTC
2013-08-09 00:01:00,70.2,69.0,29.96,SW,232,0.0,2.0,96,0.00,,,0.00,WUHU216DAVISVP2,2013-08-09 04:01:00,
2013-08-09 00:06:00,70.3,69.1,29.96,West,261,3.0,4.0,96,0.00,,,0.00,WUHU216DAVISVP2,2013-08-09 04:06:00,
2013-08-09 00:11:00,70.5,69.3,29.95,WSW,239,1.0,5.0,96,0.00,,,0.00,WUHU216DAVISVP2,2013-08-09 04:11:00,
2013-08-09 00:16:00,70.7,69.5,29.95,SW,215,3.8,7.0,96,0.00,,,0.00,WUHU216DAVISVP2,2013-08-09 04:16:00,
2013-08-09 00:21:00,71.0,69.5,29.95,SW,223,1.7,7.0,95,0.00,,,0.00,WUHU216DAVISVP2,2013-08-09 04:21:00,
2013-08-09 00:26:00,71.1,69.6,29.95,SW,225,2.0,7.0,95,0.00,,,0.00,WUHU216DAVISVP2,2013-08-09 04:26:00,
2013-08-09 00:31:00,71.3,69.5,29.95,West,259,1.5,7.0,94,0.00,,,0.00,WUHU216DAVISVP2,2013-08-09 04:31:00,
2013-08-09 00:36:00,71.6,69.8,29.95,SW,227,1.3,4.0,94,0.00,,,0.00,WUHU216DAVISVP2,2013-08-09 04:36:00,
2013-08-09 00:41:00,71.9,69.8,29.95,WNW,286,1.3,4.0,93,0.00,,,0.00,WUHU216DAVISVP2,2013-08-09 04:41:00,
2013-08-09 00:46:00,72.1,70.0,29.95,SW,225,2.4,4.0,93,0.00,,,0.00,WUHU216DAVISVP2,2013-08-09 04:46:00,
2013-08-09 00:51:00,72.2,70.1,29.95,SW,215,1.3,6.0,93,0.00,,,0.00,WUHU216DAVISVP2,2013-08-09 04:51:00,
2013-08-09 00:56:00,72.4,69.9,29.94,SW,226,1.0,6.0,92,0.00,,,0.00,WUHU216DAVISVP2,2013-08-09 04:56:00,
2013-08-09 01:01:00,72.5,70.0,29.94,SW,225,1.3,7.0,92,0.00,,,0.00,WUHU216DAVISVP2,2013-08-09 05:01:00,
2013-08-09 01:06:00,72.5,70.0,29.94,SW,219,1.0,7.0,92,0.00,,,0.00,WUHU216DAVISVP2,2013-08-09 05:06:00,
2013-08-09 01:11:00,72.5,70.0,29.94,SSE,157,1.0,7.0,92,0.00,,,0.00,WUHU216DAVISVP2,2013-08-09 05:11:00,
2013-08-09 01:16:00,72.5,70.0,29.94,SE,145,0.0,7.0,92,0.00,,,0.00,WUHU216DAVISVP2,2013-08-09 05:16:00,
2013-08-09 01:21:00,72.5,70.0,29.94,SE,145,0.0,2.0,92,0.00,,,0.00,WUHU216DAVISVP2,2013-08-09 05:21:00,
2013-08-09 01:26:00,72.5,70.0,29.94,SE,145,0.0,2.0,92,0.00,,,0.00,WUHU216DAVISVP2,2013-08-09 05:26:00,
2013-08-09 01:31:00,72.5,70.0,29.93,West,277,1.5,3.0,92,0.00,,,0.00,WUHU216DAVISVP2,2013-08-09 05:31:00,
2013-08-09 01:36:00,72.5,70.0,29.93,WNW,283,0.0,3.0,92,0.00,,,0.00,WUHU216DAVISVP2,2013-08-09 05:36:00,
2013-08-09 01:41:00,72.5,70.0,29.93,WNW,283,1.0,3.0,92,0.00,,,0.00,WUHU216DAVISVP2,2013-08-09 05:41:00,
2013-08-09 01:46:00,72.4,69.9,29.93,WNW,283,0.0,3.0,92,0.00,,,0.00,WUHU216DAVISVP2,2013-08-09 05:46:00,
2013-08-09 01:51:00,72.2,69.7,29.93,WNW,283,0.0,1.0,92,0.00,,,0.00,WUHU216DAVISVP2,2013-08-09 05:51:00,
2013-08-09 01:56:00,72.1,69.6,29.93,WNW,283,0.0,1.0,92,0.00,,,0.00,WUHU216DAVISVP2,2013-08-09 05:56:00,
2013-08-09 02:01:00,71.9,69.4,29.93,WNW,283,0.0,1.0,92,0.00,,,0.00,WUHU216DAVISVP2,2013-08-09 06:01:00,
2013-08-09 02:06:00,71.8,69.7,29.93,WNW,283,0.0,1.0,93,0.00,,,0.00,WUHU216DAVISVP2,2013-08-09 06:06:00,
2013-08-09 02:11:00,71.6,69.5,29.93,WNW,283,0.0,1.0,93,0.00,,,0.00,WUHU216DAVISVP2,2013-08-09 06:11:00,
2013-08-09 02:16:00,71.5,69.4,29.93,WNW,283,0.0,1.0,93,0.00,,,0.00,WUHU216DAVISVP2,2013-08-09 06:16:00,
2013-08-09 02:21:00,71.3,69.2,29.93,WNW,283,1.0,2.0,93,0.00,,,0.00,WUHU216DAVISVP2,2013-08-09 06:21:00,
2013-08-09 02:26:00,71.2,69.4,29.93,WNW,283,0.0,2.0,94,0.00,,,0.00,WUHU216DAVISVP2,2013-08-09 06:26:00,
2013-08-09 02:31:00,71.1,69.3,29.93,WNW,283,0.0,2.0,94,0.00,,,0.00,WUHU216DAVISVP2,2013-08-09 06:31:00,
2013-08-09 02:36:00,71.0,69.2,29.93,WNW,283,0.0,2.0,94,0.00,,,0.00,WUHU216DAVISVP2,2013-08-09 06:36:00,
2013-08-09 02:41:00,71.0,69.2,29.93,WNW,283,1.0,1.0,94,0.00,,,0.00,WUHU216DAVISVP2,2013-08-09 06:41:00,
2013-08-09 02:46:00,71.1,69.3,29.93,SW,230,0.0,3.0,94,0.00,,,0.00,WUHU216DAVISVP2,2013-08-09 06:46:00,
2013-08-09 02:51:00,71.2,69.4,29.93,SW,230,0.0,3.0,94,0.00,,,0.00,WUHU216DAVISVP2,2013-08-09 06:51:00,
2013-08-09 02:56:00,71.2,69.4,29.93,SW,230,0.0,3.0,94,0.00,,,0.00,WUHU216DAVISVP2,2013-08-09 06:56:00,
2013-08-09 03:01:00,71.2,69.4,29.92,SW,230,0.0,3.0,94,0.00,,,0.00,WUHU216DAVISVP2,2013-08-09 07:01:00,
2013-08-09 03:06:00,71.2,69.4,29.92,SW,230,0.0,2.0,94,0.00,,,0.00,WUHU216DAVISVP2,2013-08-09 07:06:00,
2013-08-09 03:11:00,71.3,69.5,29.92,SW,230,0.0,2.0,94,0.00,,,0.00,WUHU216DAVISVP2,2013-08-09 07:11:00,
2013-08-09 03:16:00,71.4,69.6,29.92,SW,230,0.0,2.0,94,0.00,,,0.00,WUHU216DAVISVP2,2013-08-09 07:16:00,
2013-08-09 03:21:00,71.4,69.6,29.92,SW,230,0.0,2.0,94,0.00,,,0.00,WUHU216DAVISVP2,2013-08-09 07:21:00,
2013-08-09 03:26:00,71.5,69.3,29.92,SW,230,0.0,1.0,93,0.00,,,0.00,WUHU216DAVISVP2,2013-08-09 07:26:00,
2013-08-09 03:31:00,71.5,69.3,29.91,SW,230,0.0,1.0,93,0.00,,,0.00,WUHU216DAVISVP2,2013-08-09 07:31:00,
2013-08-09 03:36:00,71.5,69.3,29.91,SW,230,0.0,1.0,93,0.00,,,0.00,WUHU216DAVISVP2,2013-08-09 07:36:00,
2013-08-09 03:41:00,71.6,69.4,29.91,SW,230,0.0,1.0,93,0.00,,,0.00,WUHU216DAVISVP2,2013-08-09 07:41:00,
2013-08-09 03:46:00,71.6,69.4,29.91,SW,230,0.0,1.0,93,0.00,,,0.00,WUHU216DAVISVP2,2013-08-09 07:46:00,
2013-08-09 03:51:00,71.6,69.4,29.91,West,267,1.0,1.0,93,0.00,,,0.00,WUHU216DAVISVP2,2013-08-09 07:51:00,
2013-08-09 03:56:00,71.7,69.5,29.92,West,271,0.0,1.0,93,0.00,,,0.00,WUHU216DAVISVP2,2013-08-09 07:56:00,
2013-08-09 04:01:00,71.8,69.3,29.92,West,271,1.0,1.0,92,0.00,,,0.00,WUHU216DAVISVP2,2013-08-09 08:01:00,
2013-08-09 04:06:00,71.9,69.4,29.92,West,259,0.0,2.0,92,0.00,,,0.00,WUHU216DAVISVP2,2013-08-09 08:06:00,
2013-08-09 04:11:00,72.0,69.5,29.92,West,259,0.0,2.0,92,0.00,,,0.00,WUHU216DAVISVP2,2013-08-09 08:11:00,
2013-08-09 04:16:00,72.0,69.5,29.92,West,263,2.0,3.0,92,0.00,,,0.00,WUHU216DAVISVP2,2013-08-09 08:16:00,
2013-08-09 04:21:00,72.1,69.6,29.92,West,263,1.0,3.0,92,0.00,,,0.00,WUHU216DAVISVP2,2013-08-09 08:21:00,
2013-08-09 04:26:00,72.1,69.6,29.91,West,263,0.0,3.0,92,0.00,,,0.00,WUHU216DAVISVP2,2013-08-09 08:26:00,
2013-08-09 04:31:00,72.1,69.6,29.91,West,263,1.0,3.0,92,0.00,,,0.00,WUHU216DAVISVP2,2013-08-09 08:31:00,
2013-08-09 04:36:00,72.1,69.6,29.91,SW,232,1.0,3.0,92,0.00,,,0.00,WUHU216DAVISVP2,2013-08-09 08:36:00,
2013-08-09 04:41:00,72.1,69.6,29.91,SW,232,0.0,3.0,92,0.00,,,0.00,WUHU216DAVISVP2,2013-08-09 08:41:00,
2013-08-09 04:46:00,72.1,69.6,29.90,SW,232,0.0,3.0,92,0.00,,,0.00,WUHU216DAVISVP2,2013-08-09 08:46:00,
2013-08-09 04:51:00,72.1,69.6,29.90,SW,232,1.0,3.0,92,0.00,,,0.00,WUHU216DAVISVP2,2013-08-09 08:51:00,
2013-08-09 04:56:00,72.1,69.6,29.90,SW,232,1.0,3.0,92,0.00,,,0.00,WUHU216DAVISVP2,2013-08-09 08:56:00,
2013-08-09 05:01:00,72.1,69.6,29.90,West,261,1.7,3.0,92,0.00,,,0.00,WUHU216DAVISVP2,2013-08-09 09:01:00,
2013-08-09 05:06:00,72.1,69.6,29.90,West,265,0.0,3.0,92,0.00,,,0.00,WUHU216DAVISVP2,2013-08-09 09:06:00,
2013-08-09 05:11:00,72.1,69.6,29.91,SW,217,1.0,3.0,92,0.00,,,0.00,WUHU216DAVISVP2,2013-08-09 09:11:00,
2013-08-09 05:16:00,72.2,69.7,29.90,SW,225,2.4,5.0,92,0.00,,,0.00,WUHU216DAVISVP2,2013-08-09 09:16:00,
2013-08-09 05:21:00,72.2,70.0,29.91,SSW,213,0.0,5.0,93,0.00,,,0.00,WUHU216DAVISVP2,2013-08-09 09:21:00,
2013-08-09 05:26:00,72.2,70.0,29.91,WSW,257,0.0,5.0,93,0.00,,,0.00,WUHU216DAVISVP2,2013-08-09 09:26:00,
2013-08-09 05:31:00,72.1,69.9,29.91,WSW,257,1.0,5.0,93,0.00,,,0.00,WUHU216DAVISVP2,2013-08-09 09:31:00,
2013-08-09 05:36:00,72.1,69.9,29.91,WSW,257,1.0,4.0,93,0.00,,,0.00,WUHU216DAVISVP2,2013-08-09 09:36:00,
2013-08-09 05:41:00,72.0,69.8,29.91,WSW,257,0.0,4.0,93,0.00,,,0.00,WUHU216DAVISVP2,2013-08-09 09:41:00,
2013-08-09 05:46:00,71.9,69.7,29.90,WSW,257,1.0,1.0,93,0.00,,,0.00,WUHU216DAVISVP2,2013-08-09 09:46:00,
2013-08-09 05:51:00,71.8,69.9,29.90,WSW,248,0.0,3.0,94,0.00,,,0.00,WUHU216DAVISVP2,2013-08-09 09:51:00,
2013-08-09 05:56:00,71.7,69.8,29.90,SW,214,0.0,3.0,94,0.00,,,0.00,WUHU216DAVISVP2,2013-08-09 09:56:00,
2013-08-09 06:01:00,71.6,69.8,29.90,SW,214,0.0,3.0,94,0.00,,,0.00,WUHU216DAVISVP2,2013-08-09 10:01:00,
2013-08-09 06:06:00,71.5,70.0,29.90,SW,214,0.0,3.0,95,0.00,,,0.00,WUHU216DAVISVP2,2013-08-09 10:06:00,
2013-08-09 06:11:00,71.4,69.9,29.90,SW,214,0.0,1.0,95,0.00,,,0.00,WUHU216DAVISVP2,2013-08-09 10:11:00,
2013-08-09 06:16:00,71.3,69.8,29.90,SW,214,0.0,1.0,95,0.00,,,0.00,WUHU216DAVISVP2,2013-08-09 10:16:00,
2013-08-09 06:21:00,71.3,69.8,29.90,SW,214,0.0,1.0,95,0.00,,,0.00,WUHU216DAVISVP2,2013-08-09 10:21:00,
2013-08-09 06:26:00,71.2,69.7,29.90,SW,214,0.0,0.0,95,0.00,,,0.00,WUHU216DAVISVP2,2013-08-09 10:26:00,
2013-08-09 06:31:00,71.1,69.9,29.90,SW,214,1.0,1.0,96,0.01,,,0.01,WUHU216DAVISVP2,2013-08-09 10:31:00,
2013-08-09 06:36:00,71.1,69.9,29.90,SW,234,0.0,3.0,96,0.01,,,0.01,WUHU216DAVISVP2,2013-08-09 10:36:00,
2013-08-09 06:41:00,71.1,69.9,29.90,WNW,288,0.0,3.0,96,0.01,,,0.01,WUHU216DAVISVP2,2013-08-09 10:41:00,
2013-08-09 06:46:00,71.0,69.8,29.90,West,264,1.0,4.0,96,0.02,,,0.02,WUHU216DAVISVP2,2013-08-09 10:46:00,
2013-08-09 06:51:00,71.0,69.8,29.90,SSW,206,1.7,4.0,96,0.02,,,0.02,WUHU216DAVISVP2,2013-08-09 10:51:00,
2013-08-09 06:56:00,71.0,69.8,29.90,SW,236,1.3,4.0,96,0.02,,,0.02,WUHU216DAVISVP2,2013-08-09 10:56:00,
2013-08-09 07:01:00,71.0,69.8,29.90,WSW,246,1.5,4.0,96,0.02,,,0.02,WUHU216DAVISVP2,2013-08-09 11:01:00,
2013-08-09 07:06:00,71.0,69.8,29.90,West,265,1.5,6.0,96,0.02,,,0.02,WUHU216DAVISVP2,2013-08-09 11:06:00,
2013-08-09 07:11:00,71.0,69.8,29.90,NW,304,0.0,6.0,96,0.02,,,0.02,WUHU216DAVISVP2,2013-08-09 11:11:00,
2013-08-09 07:16:00,71.0,70.1,29.91,WNW,302,1.3,6.0,97,0.02,,,0.02,WUHU216DAVISVP2,2013-08-09 11:16:00,
2013-08-09 07:21:00,71.0,70.1,29.91,WSW,239,1.0,6.0,97,0.03,,,0.03,WUHU216DAVISVP2,2013-08-09 11:21:00,
2013-08-09 07:26:00,70.9,69.7,29.91,West,267,2.0,5.0,96,0.03,,,0.03,WUHU216DAVISVP2,2013-08-09 11:26:00,
2013-08-09 07:31:00,71.0,70.1,29.91,WSW,246,3.3,8.0,97,0.02,,,0.03,WUHU216DAVISVP2,2013-08-09 11:31:00,
2013-08-09 07:36:00,70.9,70.0,29.91,West,274,1.0,8.0,97,0.03,,,0.04,WUHU216DAVISVP2,2013-08-09 11:36:00,
2013-08-09 07:41:00,70.9,70.0,29.91,SSW,196,2.0,8.0,97,0.04,,,0.05,WUHU216DAVISVP2,2013-08-09 11:41:00,
2013-08-09 07:46:00,70.9,70.0,29.91,SSW,210,1.8,8.0,97,0.04,,,0.06,WUHU216DAVISVP2,2013-08-09 11:46:00,
2013-08-09 07:51:00,70.9,70.0,29.91,WSW,243,1.7,5.0,97,0.05,,,0.07,WUHU216DAVISVP2,2013-08-09 11:51:00,
2013-08-09 07:56:00,70.9,70.0,29.91,South,191,2.0,5.0,97,0.05,,,0.07,WUHU216DAVISVP2,2013-08-09 11:56:00,
2013-08-09 08:01:00,70.9,70.0,29.91,WSW,250,1.3,4.0,97,0.06,,,0.08,WUHU216DAVISVP2,2013-08-09 12:01:00,
2013-08-09 08:06:00,71.0,70.1,29.91,WSW,250,0.0,4.0,97,0.07,,,0.09,WUHU216DAVISVP2,2013-08-09 12:06:00,
2013-08-09 08:11:00,71.0,70.1,29.91,SW,217,2.0,4.0,97,0.07,,,0.09,WUHU216DAVISVP2,2013-08-09 12:11:00,
2013-08-09 08:16:00,71.0,70.1,29.91,SW,227,1.0,5.0,97,0.07,,,0.09,WUHU216DAVISVP2,2013-08-09 12:16:00,
2013-08-09 08:21:00,71.1,70.5,29.90,WSW,245,1.0,5.0,98,0.07,,,0.10,WUHU216DAVISVP2,2013-08-09 12:21:00,
2013-08-09 08:26:00,71.1,70.5,29.90,South,169,1.3,6.0,98,0.07,,,0.10,WUHU216DAVISVP2,2013-08-09 12:26:00,
2013-08-09 08:31:00,71.1,70.5,29.90,SW,231,1.9,6.0,98,0.08,,,0.11,WUHU216DAVISVP2,2013-08-09 12:31:00,
2013-08-09 08:36:00,71.1,70.5,29.90,WSW,243,2.0,6.0,98,0.08,,,0.12,WUHU216DAVISVP2,2013-08-09 12:36:00,
2013-08-09 08:41:00,71.2,70.6,29.90,SW,234,1.0,6.0,98,0.07,,,0.12,WUHU216DAVISVP2,2013-08-09 12:41:00,
2013-08-09 08:46:00,71.1,70.5,29.89,West,279,0.0,4.0,98,0.07,,,0.13,WUHU216DAVISVP2,2013-08-09 12:46:00,
2013-08-09 08:51:00,71.1,70.5,29.89,West,279,1.0,3.0,98,0.06,,,0.13,WUHU216DAVISVP2,2013-08-09 12:51:00,
2013-08-09 08:56:00,71.1,70.5,29.89,West,279,1.0,3.0,98,0.07,,,0.14,WUHU216DAVISVP2,2013-08-09 12:56:00,
2013-08-09 09:01:00,71.1,70.5,29.89,WSW,256,1.0,3.0,98,0.06,,,0.14,WUHU216DAVISVP2,2013-08-09 13:01:00,
2013-08-09 09:02:00,71.1,70.5,29.89,WSW,256,1.0,3.0,98,0.06,,,0.14,WUHU216DAVISVP2,2013-08-09 13:02:00,
2013-08-09 09:07:00,71.2,70.6,29.88,SW,223,2.0,5.0,98,0.06,,,0.15,WUHU216DAVISVP2,2013-08-09 13:07:00,
2013-08-09 09:12:00,71.2,70.6,29.88,SW,225,1.0,5.0,98,0.06,,,0.15,WUHU216DAVISVP2,2013-08-09 13:12:00,
2013-08-09 09:17:00,71.3,70.7,29.87,SW,221,0.0,5.0,98,0.06,,,0.15,WUHU216DAVISVP2,2013-08-09 13:17:00,
2013-08-09 09:22:00,71.3,70.7,29.87,SW,221,0.0,5.0,98,0.06,,,0.16,WUHU216DAVISVP2,2013-08-09 13:22:00,
2013-08-09 09:27:00,71.4,70.8,29.87,WSW,254,4.2,8.0,98,0.06,,,0.16,WUHU216DAVISVP2,2013-08-09 13:27:00,
2013-08-09 09:32:00,71.5,70.6,29.87,West,267,1.0,8.0,97,0.05,,,0.16,WUHU216DAVISVP2,2013-08-09 13:32:00,
2013-08-09 09:37:00,71.6,71.0,29.87,SSW,213,3.3,8.0,98,0.05,,,0.17,WUHU216DAVISVP2,2013-08-09 13:37:00,
2013-08-09 09:42:00,71.6,70.7,29.87,WSW,246,0.0,8.0,97,0.05,,,0.17,WUHU216DAVISVP2,2013-08-09 13:42:00,
2013-08-09 09:47:00,71.6,70.7,29.88,West,262,2.3,5.0,97,0.04,,,0.17,WUHU216DAVISVP2,2013-08-09 13:47:00,
2013-08-09 09:52:00,71.6,70.7,29.87,WSW,254,1.3,6.0,97,0.04,,,0.17,WUHU216DAVISVP2,2013-08-09 13:52:00,
2013-08-09 09:57:00,71.6,70.7,29.88,SW,221,2.7,6.0,97,0.03,,,0.17,WUHU216DAVISVP2,2013-08-09 13:57:00,
2013-08-09 10:02:00,71.5,70.6,29.88,West,263,1.0,6.0,97,0.04,,,0.18,WUHU216DAVISVP2,2013-08-09 14:02:00,
2013-08-09 10:07:00,71.5,70.6,29.87,NW,310,1.1,5.0,97,0.04,,,0.19,WUHU216DAVISVP2,2013-08-09 14:07:00,
2013-08-09 10:12:00,71.5,70.6,29.87,West,270,1.2,5.0,97,0.06,,,0.21,WUHU216DAVISVP2,2013-08-09 14:12:00,
2013-08-09 10:17:00,71.4,70.5,29.88,WSW,247,1.2,10.0,97,0.08,,,0.23,WUHU216DAVISVP2,2013-08-09 14:17:00,
2013-08-09 10:22:00,71.3,70.4,29.88,SW,223,2.0,10.0,97,0.10,,,0.26,WUHU216DAVISVP2,2013-08-09 14:22:00,
2013-08-09 10:27:00,71.2,70.3,29.88,WSW,245,2.0,10.0,97,0.14,,,0.31,WUHU216DAVISVP2,2013-08-09 14:27:00,
2013-08-09 10:32:00,71.2,70.3,29.88,SSW,213,1.0,10.0,97,0.19,,,0.35,WUHU216DAVISVP2,2013-08-09 14:32:00,
2013-08-09 10:37:00,71.2,70.6,29.88,SSW,213,0.0,8.0,98,0.19,,,0.36,WUHU216DAVISVP2,2013-08-09 14:37:00,
2013-08-09 10:42:00,71.2,70.6,29.87,SSW,213,1.0,6.0,98,0.21,,,0.38,WUHU216DAVISVP2,2013-08-09 14:42:00,
2013-08-09 10:47:00,71.2,70.6,29.87,SSW,213,0.0,5.0,98,0.22,,,0.39,WUHU216DAVISVP2,2013-08-09 14:47:00,
2013-08-09 10:52:00,71.2,70.6,29.86,SSW,213,0.0,2.0,98,0.24,,,0.41,WUHU216DAVISVP2,2013-08-09 14:52:00,
2013-08-09 10:57:00,71.2,70.6,29.86,SSW,213,1.0,2.0,98,0.25,,,0.42,WUHU216DAVISVP2,2013-08-09 14:57:00,
2013-08-09 11:02:00,71.4,70.8,29.86,SSW,213,0.0,2.0,98,0.25,,,0.43,WUHU216DAVISVP2,2013-08-09 15:02:00,
2013-08-09 11:07:00,71.5,70.9,29.86,SSW,213,0.0,2.0,98,0.24,,,0.43,WUHU216DAVISVP2,2013-08-09 15:07:00,
2013-08-09 11:12:00,71.5,70.9,29.85,SSW,213,0.0,1.0,98,0.22,,,0.43,WUHU216DAVISVP2,2013-08-09 15:12:00,
2013-08-09 11:17:00,71.6,71.0,29.85,SSW,213,0.0,0.0,98,0.21,,,0.44,WUHU216DAVISVP2,2013-08-09 15:17:00,
2013-08-09 11:22:00,71.6,71.0,29.85,WSW,247,4.0,4.0,98,0.18,,,0.44,WUHU216DAVISVP2,2013-08-09 15:22:00,
2013-08-09 11:27:00,71.3,70.7,29.85,SSW,197,0.0,4.0,98,0.13,,,0.44,WUHU216DAVISVP2,2013-08-09 15:27:00,
2013-08-09 11:32:00,71.3,70.7,29.84,WNW,286,1.2,4.0,98,0.09,,,0.44,WUHU216DAVISVP2,2013-08-09 15:32:00,
2013-08-09 11:37:00,71.4,70.8,29.84,WNW,296,1.0,4.0,98,0.09,,,0.45,WUHU216DAVISVP2,2013-08-09 15:37:00,
2013-08-09 11:42:00,71.4,70.8,29.84,WNW,296,0.0,4.0,98,0.07,,,0.45,WUHU216DAVISVP2,2013-08-09 15:42:00,
2013-08-09 11:47:00,71.4,70.8,29.83,WNW,296,1.0,4.0,98,0.07,,,0.46,WUHU216DAVISVP2,2013-08-09 15:47:00,
2013-08-09 11:52:00,71.5,70.9,29.83,WNW,296,1.0,2.0,98,0.05,,,0.46,WUHU216DAVISVP2,2013-08-09 15:52:00,
2013-08-09 11:57:00,71.7,71.1,29.83,WNW,296,1.0,2.0,98,0.04,,,0.46,WUHU216DAVISVP2,2013-08-09 15:57:00,
2013-08-09 12:02:00,71.7,71.1,29.82,WNW,296,0.0,2.0,98,0.03,,,0.46,WUHU216DAVISVP2,2013-08-09 16:02:00,
2013-08-09 12:07:00,71.7,71.1,29.82,WNW,296,0.0,2.0,98,0.03,,,0.46,WUHU216DAVISVP2,2013-08-09 16:07:00,
2013-08-09 12:12:00,71.6,71.0,29.82,WNW,296,0.0,2.0,98,0.03,,,0.47,WUHU216DAVISVP2,2013-08-09 16:12:00,
2013-08-09 12:17:00,71.6,71.0,29.82,WNW,289,1.5,2.0,98,0.04,,,0.48,WUHU216DAVISVP2,2013-08-09 16:17:00,
2013-08-09 12:22:00,71.5,70.9,29.82,West,268,1.0,2.0,98,0.08,,,0.52,WUHU216DAVISVP2,2013-08-09 16:22:00,
2013-08-09 12:27:00,71.5,70.9,29.82,SSW,200,1.0,2.0,98,0.13,,,0.57,WUHU216DAVISVP2,2013-08-09 16:27:00,
2013-08-09 12:32:00,71.6,71.0,29.82,SW,226,1.7,4.0,98,0.13,,,0.57,WUHU216DAVISVP2,2013-08-09 16:32:00,
2013-08-09 12:37:00,71.7,71.1,29.81,SW,229,1.0,4.0,98,0.12,,,0.57,WUHU216DAVISVP2,2013-08-09 16:37:00,
2013-08-09 12:42:00,71.9,71.3,29.81,SW,234,3.0,5.0,98,0.12,,,0.57,WUHU216DAVISVP2,2013-08-09 16:42:00,
2013-08-09 12:47:00,72.0,71.4,29.81,West,265,0.0,5.0,98,0.12,,,0.58,WUHU216DAVISVP2,2013-08-09 16:47:00,
2013-08-09 12:52:00,72.1,71.5,29.81,West,261,1.3,5.0,98,0.12,,,0.58,WUHU216DAVISVP2,2013-08-09 16:52:00,
2013-08-09 12:57:00,72.1,71.5,29.81,West,272,0.0,5.0,98,0.14,,,0.60,WUHU216DAVISVP2,2013-08-09 16:57:00,
2013-08-09 13:02:00,72.1,71.5,29.81,West,272,1.3,4.0,98,0.17,,,0.63,WUHU216DAVISVP2,2013-08-09 17:02:00,
2013-08-09 13:03:00,72.1,71.5,29.81,West,272,1.3,4.0,98,0.17,,,0.63,WUHU216DAVISVP2,2013-08-09 17:03:00,
2013-08-09 13:08:00,72.1,71.5,29.81,West,272,1.0,3.0,98,0.17,,,0.63,WUHU216DAVISVP2,2013-08-09 17:08:00,
2013-08-09 13:13:00,72.3,71.7,29.80,WSW,254,1.0,3.0,98,0.17,,,0.64,WUHU216DAVISVP2,2013-08-09 17:13:00,
2013-08-09 13:18:00,72.3,71.7,29.80,ESE,121,1.0,6.0,98,0.16,,,0.64,WUHU216DAVISVP2,2013-08-09 17:18:00,
2013-08-09 13:23:00,72.5,71.9,29.80,SW,219,2.0,6.0,98,0.11,,,0.64,WUHU216DAVISVP2,2013-08-09 17:23:00,
2013-08-09 13:28:00,72.6,72.0,29.79,SW,220,0.0,6.0,98,0.07,,,0.64,WUHU216DAVISVP2,2013-08-09 17:28:00,
2013-08-09 13:33:00,72.6,72.0,29.79,SW,220,0.0,6.0,98,0.07,,,0.64,WUHU216DAVISVP2,2013-08-09 17:33:00,
2013-08-09 13:38:00,72.6,72.0,29.79,SW,220,0.0,2.0,98,0.07,,,0.64,WUHU216DAVISVP2,2013-08-09 17:38:00,
2013-08-09 13:43:00,72.8,72.2,29.79,SW,220,0.0,2.0,98,0.07,,,0.64,WUHU216DAVISVP2,2013-08-09 17:43:00,
2013-08-09 13:48:00,72.9,72.3,29.78,SW,220,0.0,1.0,98,0.07,,,0.65,WUHU216DAVISVP2,2013-08-09 17:48:00,
2013-08-09 13:53:00,72.9,72.3,29.78,SW,220,1.0,1.0,98,0.07,,,0.65,WUHU216DAVISVP2,2013-08-09 17:53:00,
2013-08-09 13:58:00,72.8,72.2,29.78,SW,220,0.0,1.0,98,0.05,,,0.66,WUHU216DAVISVP2,2013-08-09 17:58:00,
2013-08-09 14:03:00,72.8,72.2,29.77,SW,220,0.0,1.0,98,0.03,,,0.66,WUHU216DAVISVP2,2013-08-09 18:03:00,
2013-08-09 14:08:00,72.9,72.3,29.77,SW,220,1.0,1.0,98,0.04,,,0.67,WUHU216DAVISVP2,2013-08-09 18:08:00,
2013-08-09 14:13:00,72.9,72.3,29.78,West,263,0.0,4.0,98,0.04,,,0.68,WUHU216DAVISVP2,2013-08-09 18:13:00,
2013-08-09 14:18:00,72.9,72.3,29.77,West,263,1.0,4.0,98,0.05,,,0.69,WUHU216DAVISVP2,2013-08-09 18:18:00,
2013-08-09 14:23:00,72.9,72.3,29.78,West,263,0.0,4.0,98,0.05,,,0.69,WUHU216DAVISVP2,2013-08-09 18:23:00,
2013-08-09 14:28:00,73.0,72.4,29.78,SW,232,1.7,3.0,98,0.05,,,0.69,WUHU216DAVISVP2,2013-08-09 18:28:00,
2013-08-09 14:33:00,72.9,72.0,29.77,SW,227,1.1,5.0,97,0.06,,,0.70,WUHU216DAVISVP2,2013-08-09 18:33:00,
2013-08-09 14:38:00,72.8,72.2,29.77,SSW,210,2.5,7.0,98,0.06,,,0.70,WUHU216DAVISVP2,2013-08-09 18:38:00,
2013-08-09 14:43:00,72.7,71.8,29.77,SSW,209,1.0,7.0,97,0.06,,,0.70,WUHU216DAVISVP2,2013-08-09 18:43:00,
2013-08-09 14:48:00,72.8,71.9,29.76,WSW,250,1.3,7.0,97,0.05,,,0.70,WUHU216DAVISVP2,2013-08-09 18:48:00,
2013-08-09 14:53:00,73.1,72.5,29.76,SSW,207,4.0,7.0,98,0.05,,,0.70,WUHU216DAVISVP2,2013-08-09 18:53:00,
2013-08-09 14:58:00,73.1,72.2,29.76,SW,234,2.0,7.0,97,0.04,,,0.70,WUHU216DAVISVP2,2013-08-09 18:58:00,
2013-08-09 15:03:00,73.3,72.4,29.76,SW,236,0.0,7.0,97,0.04,,,0.70,WUHU216DAVISVP2,2013-08-09 19:03:00,
2013-08-09 15:08:00,73.5,72.6,29.76,SW,236,0.0,7.0,97,0.03,,,0.70,WUHU216DAVISVP2,2013-08-09 19:08:00,
2013-08-09 15:13:00,73.5,72.6,29.75,WSW,256,1.0,7.0,97,0.02,,,0.70,WUHU216DAVISVP2,2013-08-09 19:13:00,
2013-08-09 15:18:00,73.5,72.6,29.75,WSW,252,0.0,3.0,97,0.02,,,0.71,WUHU216DAVISVP2,2013-08-09 19:18:00,
2013-08-09 15:23:00,73.3,72.4,29.75,WSW,252,0.0,3.0,97,0.02,,,0.71,WUHU216DAVISVP2,2013-08-09 19:23:00,
2013-08-09 15:28:00,73.4,72.5,29.74,WSW,252,0.0,3.0,97,0.02,,,0.71,WUHU216DAVISVP2,2013-08-09 19:28:00,
2013-08-09 15:33:00,73.4,72.5,29.74,WSW,252,0.0,1.0,97,0.01,,,0.71,WUHU216DAVISVP2,2013-08-09 19:33:00,
2013-08-09 15:38:00,73.3,72.4,29.74,WSW,252,0.0,1.0,97,0.01,,,0.71,WUHU216DAVISVP2,2013-08-09 19:38:00,
2013-08-09 15:43:00,73.2,72.3,29.73,SW,233,1.4,3.0,97,0.01,,,0.71,WUHU216DAVISVP2,2013-08-09 19:43:00,
2013-08-09 15:48:00,73.0,72.1,29.73,SW,231,0.0,3.0,97,0.02,,,0.72,WUHU216DAVISVP2,2013-08-09 19:48:00,
2013-08-09 15:53:00,72.8,71.9,29.73,SW,231,1.0,3.0,97,0.03,,,0.73,WUHU216DAVISVP2,2013-08-09 19:53:00,
2013-08-09 15:58:00,72.8,71.9,29.73,SW,231,0.0,3.0,97,0.03,,,0.73,WUHU216DAVISVP2,2013-08-09 19:58:00,
2013-08-09 16:03:00,72.7,71.8,29.73,SW,231,1.0,2.0,97,0.03,,,0.73,WUHU216DAVISVP2,2013-08-09 20:03:00,
2013-08-09 16:08:00,72.6,71.7,29.73,SW,231,0.0,2.0,97,0.03,,,0.73,WUHU216DAVISVP2,2013-08-09 20:08:00,
2013-08-09 16:13:00,72.4,71.5,29.73,SW,231,1.0,2.0,97,0.03,,,0.73,WUHU216DAVISVP2,2013-08-09 20:13:00,
2013-08-09 16:18:00,72.2,71.3,29.73,SW,231,1.0,2.0,97,0.02,,,0.73,WUHU216DAVISVP2,2013-08-09 20:18:00,
2013-08-09 16:23:00,72.2,71.3,29.73,SW,231,1.0,1.0,97,0.02,,,0.73,WUHU216DAVISVP2,2013-08-09 20:23:00,
2013-08-09 16:28:00,72.2,71.6,29.73,SW,231,0.0,1.0,98,0.02,,,0.73,WUHU216DAVISVP2,2013-08-09 20:28:00,
2013-08-09 16:33:00,72.1,71.5,29.73,SW,231,0.0,1.0,98,0.03,,,0.75,WUHU216DAVISVP2,2013-08-09 20:33:00,
2013-08-09 16:38:00,72.1,71.5,29.73,SW,231,0.0,1.0,98,0.05,,,0.76,WUHU216DAVISVP2,2013-08-09 20:38:00,
2013-08-09 16:43:00,72.0,71.4,29.73,SW,231,0.0,1.0,98,0.05,,,0.76,WUHU216DAVISVP2,2013-08-09 20:43:00,
2013-08-09 16:48:00,72.2,71.6,29.73,SW,231,0.0,0.0,98,0.05,,,0.77,WUHU216DAVISVP2,2013-08-09 20:48:00,
2013-08-09 16:53:00,72.3,71.7,29.72,SW,231,0.0,0.0,98,0.04,,,0.77,WUHU216DAVISVP2,2013-08-09 20:53:00,
2013-08-09 16:58:00,72.5,71.9,29.72,SW,231,0.0,1.0,98,0.04,,,0.77,WUHU216DAVISVP2,2013-08-09 20:58:00,
2013-08-09 17:03:00,72.6,72.0,29.71,SW,231,0.0,1.0,98,0.04,,,0.77,WUHU216DAVISVP2,2013-08-09 21:03:00,
2013-08-09 17:08:00,72.8,72.2,29.71,SW,231,0.0,1.0,98,0.04,,,0.77,WUHU216DAVISVP2,2013-08-09 21:08:00,
2013-08-09 17:13:00,72.8,72.2,29.71,SW,231,0.0,1.0,98,0.04,,,0.77,WUHU216DAVISVP2,2013-08-09 21:13:00,
2013-08-09 17:18:00,73.0,72.4,29.71,SW,231,0.0,1.0,98,0.04,,,0.77,WUHU216DAVISVP2,2013-08-09 21:18:00,
2013-08-09 17:23:00,73.0,72.4,29.71,SW,231,0.0,1.0,98,0.04,,,0.77,WUHU216DAVISVP2,2013-08-09 21:23:00,
2013-08-09 17:28:00,72.8,72.2,29.70,SW,231,0.0,0.0,98,0.04,,,0.77,WUHU216DAVISVP2,2013-08-09 21:28:00,
2013-08-09 17:33:00,72.9,72.3,29.70,SW,231,0.0,0.0,98,0.02,,,0.77,WUHU216DAVISVP2,2013-08-09 21:33:00,
2013-08-09 17:38:00,73.3,72.7,29.70,SW,231,0.0,0.0,98,0.01,,,0.77,WUHU216DAVISVP2,2013-08-09 21:38:00,
2013-08-09 17:43:00,73.4,72.8,29.70,SW,231,0.0,0.0,98,0.01,,,0.77,WUHU216DAVISVP2,2013-08-09 21:43:00,
2013-08-09 17:48:00,73.4,72.8,29.70,SW,231,0.0,0.0,98,0.00,,,0.77,WUHU216DAVISVP2,2013-08-09 21:48:00,
2013-08-09 17:53:00,73.3,72.4,29.69,SW,231,0.0,0.0,97,0.00,,,0.77,WUHU216DAVISVP2,2013-08-09 21:53:00,
2013-08-09 17:58:00,73.4,72.8,29.69,SW,231,0.0,0.0,98,0.00,,,0.77,WUHU216DAVISVP2,2013-08-09 21:58:00,
2013-08-09 18:03:00,73.6,73.0,29.69,SW,231,1.0,1.0,98,0.00,,,0.77,WUHU216DAVISVP2,2013-08-09 22:03:00,
2013-08-09 18:08:00,73.6,72.7,29.68,SW,231,0.0,1.0,97,0.00,,,0.77,WUHU216DAVISVP2,2013-08-09 22:08:00,
2013-08-09 18:13:00,73.4,72.5,29.68,SW,233,1.4,3.0,97,0.00,,,0.77,WUHU216DAVISVP2,2013-08-09 22:13:00,
2013-08-09 18:18:00,73.4,72.5,29.68,SW,233,0.0,3.0,97,0.00,,,0.77,WUHU216DAVISVP2,2013-08-09 22:18:00,
2013-08-09 18:23:00,73.3,72.4,29.68,SW,233,0.0,3.0,97,0.00,,,0.77,WUHU216DAVISVP2,2013-08-09 22:23:00,
2013-08-09 18:28:00,73.4,72.5,29.67,SW,233,1.1,3.0,97,0.00,,,0.77,WUHU216DAVISVP2,2013-08-09 22:28:00,
2013-08-09 18:33:00,73.3,72.4,29.68,SW,233,1.0,2.0,97,0.00,,,0.77,WUHU216DAVISVP2,2013-08-09 22:33:00,
2013-08-09 18:38:00,73.3,72.4,29.69,SW,233,0.0,2.0,97,0.00,,,0.77,WUHU216DAVISVP2,2013-08-09 22:38:00,
2013-08-09 18:43:00,73.3,72.4,29.70,SW,233,0.0,2.0,97,0.00,,,0.77,WUHU216DAVISVP2,2013-08-09 22:43:00,
2013-08-09 18:48:00,73.4,72.5,29.70,SW,233,0.0,1.0,97,0.00,,,0.77,WUHU216DAVISVP2,2013-08-09 22:48:00,
2013-08-09 18:53:00,73.4,72.5,29.70,SW,233,0.0,1.0,97,0.00,,,0.77,WUHU216DAVISVP2,2013-08-09 22:53:00,
2013-08-09 18:58:00,73.5,72.6,29.70,SW,233,0.0,0.0,97,0.00,,,0.77,WUHU216DAVISVP2,2013-08-09 22:58:00,
2013-08-09 19:03:00,73.5,72.6,29.70,SW,233,0.0,1.0,97,0.00,,,0.77,WUHU216DAVISVP2,2013-08-09 23:03:00,
2013-08-09 19:08:00,73.5,72.6,29.70,SW,233,0.0,1.0,97,0.00,,,0.77,WUHU216DAVISVP2,2013-08-09 23:08:00,
2013-08-09 19:13:00,73.4,72.5,29.70,SW,233,0.0,1.0,97,0.00,,,0.77,WUHU216DAVISVP2,2013-08-09 23:13:00,
2013-08-09 19:18:00,73.4,72.5,29.71,SW,233,0.0,1.0,97,0.00,,,0.77,WUHU216DAVISVP2,2013-08-09 23:18:00,
2013-08-09 19:23:00,73.3,72.4,29.71,SW,233,0.0,0.0,97,0.00,,,0.77,WUHU216DAVISVP2,2013-08-09 23:23:00,
2013-08-09 19:28:00,73.3,72.7,29.71,SW,233,0.0,0.0,98,0.00,,,0.77,WUHU216DAVISVP2,2013-08-09 23:28:00,
2013-08-09 19:33:00,73.2,72.6,29.71,SW,233,0.0,0.0,98,0.00,,,0.77,WUHU216DAVISVP2,2013-08-09 23:33:00,
2013-08-09 19:38:00,73.1,72.5,29.72,SW,233,0.0,0.0,98,0.00,,,0.77,WUHU216DAVISVP2,2013-08-09 23:38:00,
2013-08-09 19:43:00,73.1,72.5,29.72,SW,233,0.0,0.0,98,0.00,,,0.77,WUHU216DAVISVP2,2013-08-09 23:43:00,
2013-08-09 19:48:00,73.0,72.4,29.72,SW,233,0.0,0.0,98,0.00,,,0.77,WUHU216DAVISVP2,2013-08-09 23:48:00,
2013-08-09 19:53:00,72.8,71.9,29.71,SW,233,0.0,1.0,97,0.00,,,0.77,WUHU216DAVISVP2,2013-08-09 23:53:00,
2013-08-09 19:58:00,72.7,72.1,29.72,SW,233,0.0,1.0,98,0.00,,,0.77,WUHU216DAVISVP2,2013-08-09 23:58:00,
2013-08-09 20:03:00,72.5,71.9,29.72,SW,233,0.0,1.0,98,0.00,,,0.77,WUHU216DAVISVP2,2013-08-10 00:03:00,
2013-08-09 20:08:00,72.3,71.7,29.72,SW,233,0.0,1.0,98,0.00,,,0.77,WUHU216DAVISVP2,2013-08-10 00:08:00,
2013-08-09 20:13:00,72.2,71.6,29.72,SW,233,0.0,1.0,98,0.00,,,0.77,WUHU216DAVISVP2,2013-08-10 00:13:00,
2013-08-09 20:18:00,72.1,71.5,29.73,SW,233,0.0,0.0,98,0.00,,,0.77,WUHU216DAVISVP2,2013-08-10 00:18:00,
2013-08-09 20:23:00,72.0,71.4,29.73,SW,233,0.0,0.0,98,0.00,,,0.77,WUHU216DAVISVP2,2013-08-10 00:23:00,
2013-08-09 20:28:00,71.9,71.3,29.73,SW,233,0.0,0.0,98,0.00,,,0.77,WUHU216DAVISVP2,2013-08-10 00:28:00,
2013-08-09 20:33:00,71.6,71.0,29.73,SW,233,0.0,0.0,98,0.00,,,0.77,WUHU216DAVISVP2,2013-08-10 00:33:00,
2013-08-09 20:38:00,71.4,70.8,29.73,SW,233,0.0,0.0,98,0.00,,,0.77,WUHU216DAVISVP2,2013-08-10 00:38:00,
2013-08-09 20:43:00,71.2,70.6,29.73,SW,233,0.0,0.0,98,0.00,,,0.77,WUHU216DAVISVP2,2013-08-10 00:43:00,
2013-08-09 20:48:00,71.1,70.5,29.73,SW,233,0.0,0.0,98,0.00,,,0.77,WUHU216DAVISVP2,2013-08-10 00:48:00,
2013-08-09 20:53:00,70.9,70.3,29.73,SW,233,0.0,0.0,98,0.00,,,0.77,WUHU216DAVISVP2,2013-08-10 00:53:00,
2013-08-09 20:58:00,70.8,70.2,29.73,SW,233,0.0,0.0,98,0.00,,,0.77,WUHU216DAVISVP2,2013-08-10 00:58:00,
2013-08-09 21:03:00,70.7,70.1,29.73,SW,233,0.0,0.0,98,0.00,,,0.77,WUHU216DAVISVP2,2013-08-10 01:03:00,
2013-08-09 21:08:00,70.6,70.0,29.73,SW,233,0.0,0.0,98,0.00,,,0.77,WUHU216DAVISVP2,2013-08-10 01:08:00,
2013-08-09 21:13:00,70.4,69.8,29.73,SW,233,0.0,0.0,98,0.00,,,0.77,WUHU216DAVISVP2,2013-08-10 01:13:00,
2013-08-09 21:18:00,70.3,69.7,29.74,SW,233,0.0,0.0,98,0.00,,,0.77,WUHU216DAVISVP2,2013-08-10 01:18:00,
2013-08-09 21:23:00,70.0,69.4,29.74,SW,233,0.0,0.0,98,0.00,,,0.77,WUHU216DAVISVP2,2013-08-10 01:23:00,
2013-08-09 21:28:00,69.8,69.2,29.74,SW,233,0.0,0.0,98,0.00,,,0.77,WUHU216DAVISVP2,2013-08-10 01:28:00,
2013-08-09 21:33:00,69.6,69.0,29.74,SW,233,0.0,0.0,98,0.00,,,0.77,WUHU216DAVISVP2,2013-08-10 01:33:00,
2013-08-09 21:38:00,69.4,68.8,29.74,SW,233,0.0,0.0,98,0.00,,,0.77,WUHU216DAVISVP2,2013-08-10 01:38:00,
2013-08-09 21:43:00,69.3,68.7,29.74,SW,233,0.0,0.0,98,0.00,,,0.77,WUHU216DAVISVP2,2013-08-10 01:43:00,
2013-08-09 21:48:00,69.0,68.4,29.74,SW,233,0.0,0.0,98,0.00,,,0.77,WUHU216DAVISVP2,2013-08-10 01:48:00,
2013-08-09 21:53:00,68.8,68.2,29.74,SW,233,0.0,0.0,98,0.00,,,0.77,WUHU216DAVISVP2,2013-08-10 01:53:00,
2013-08-09 21:58:00,68.7,68.1,29.74,SW,233,0.0,0.0,98,0.00,,,0.77,WUHU216DAVISVP2,2013-08-10 01:58:00,
2013-08-09 22:03:00,68.6,68.0,29.74,SW,233,0.0,0.0,98,0.00,,,0.77,WUHU216DAVISVP2,2013-08-10 02:03:00,
2013-08-09 22:08:00,68.6,68.0,29.73,SW,233,0.0,0.0,98,0.00,,,0.77,WUHU216DAVISVP2,2013-08-10 02:08:00,
2013-08-09 22:13:00,68.5,67.9,29.73,SW,233,0.0,0.0,98,0.00,,,0.77,WUHU216DAVISVP2,2013-08-10 02:13:00,
2013-08-09 22:18:00,68.3,67.7,29.73,SW,233,0.0,0.0,98,0.00,,,0.77,WUHU216DAVISVP2,2013-08-10 02:18:00,
2013-08-09 22:23:00,68.1,67.5,29.73,SW,233,0.0,0.0,98,0.00,,,0.77,WUHU216DAVISVP2,2013-08-10 02:23:00,
2013-08-09 22:28:00,68.0,67.4,29.73,SW,233,0.0,0.0,98,0.00,,,0.77,WUHU216DAVISVP2,2013-08-10 02:28:00,
2013-08-09 22:33:00,67.8,67.2,29.73,SW,233,0.0,0.0,98,0.00,,,0.77,WUHU216DAVISVP2,2013-08-10 02:33:00,
2013-08-09 22:38:00,67.7,67.1,29.73,SW,233,0.0,0.0,98,0.00,,,0.77,WUHU216DAVISVP2,2013-08-10 02:38:00,
2013-08-09 22:43:00,67.6,67.0,29.73,SW,233,0.0,0.0,98,0.00,,,0.77,WUHU216DAVISVP2,2013-08-10 02:43:00,
2013-08-09 22:48:00,67.4,66.8,29.73,SW,233,0.0,0.0,98,0.00,,,0.77,WUHU216DAVISVP2,2013-08-10 02:48:00,
2013-08-09 22:53:00,67.4,66.8,29.73,SW,233,0.0,0.0,98,0.00,,,0.77,WUHU216DAVISVP2,2013-08-10 02:53:00,
2013-08-09 22:59:00,67.2,66.6,29.73,SW,233,0.0,0.0,98,0.00,,,0.77,WUHU216DAVISVP2,2013-08-10 02:59:00,
2013-08-09 23:04:00,67.0,66.4,29.74,SW,233,0.0,0.0,98,0.00,,,0.77,WUHU216DAVISVP2,2013-08-10 03:04:00,
2013-08-09 23:09:00,67.0,66.4,29.74,SW,233,0.0,0.0,98,0.00,,,0.77,WUHU216DAVISVP2,2013-08-10 03:09:00,
2013-08-09 23:14:00,67.1,66.8,29.74,SW,233,0.0,0.0,99,0.00,,,0.77,WUHU216DAVISVP2,2013-08-10 03:14:00,
2013-08-09 23:19:00,67.1,66.8,29.74,SW,233,0.0,0.0,99,0.00,,,0.77,WUHU216DAVISVP2,2013-08-10 03:19:00,
2013-08-09 23:24:00,66.9,66.6,29.74,SW,233,0.0,0.0,99,0.00,,,0.77,WUHU216DAVISVP2,2013-08-10 03:24:00,
2013-08-09 23:29:00,66.8,66.5,29.74,SW,233,0.0,0.0,99,0.00,,,0.77,WUHU216DAVISVP2,2013-08-10 03:29:00,
2013-08-09 23:34:00,66.6,66.0,29.74,SW,233,0.0,0.0,98,0.00,,,0.77,WUHU216DAVISVP2,2013-08-10 03:34:00,
2013-08-09 23:39:00,66.5,65.9,29.74,SW,233,0.0,0.0,98,0.00,,,0.77,WUHU216DAVISVP2,2013-08-10 03:39:00,
2013-08-09 23:44:00,66.5,66.2,29.74,SW,233,0.0,0.0,99,0.00,,,0.77,WUHU216DAVISVP2,2013-08-10 03:44:00,
2013-08-09 23:49:00,66.5,66.2,29.74,SW,233,0.0,0.0,99,0.00,,,0.77,WUHU216DAVISVP2,2013-08-10 03:49:00,
2013-08-09 23:54:00,66.4,66.1,29.74,SW,233,0.0,0.0,99,0.00,,,0.77,WUHU216DAVISVP2,2013-08-10 03:54:00,
2013-08-09 23:59:00,66.3,66.0,29.74,SW,233,0.0,0.0,99,0.00,,,0.77,WUHU216DAVISVP2,2013-08-10 03:59:00,